• en France
  • Liste des pays
  • À 7 jours
  • Température de l'eau
  • Carte satellitaire
  • Carte météo
  • Widgets météo
  • user-avatar
    Se connecter

    Météo par heure à Florencia

    Ce jour, 19 Août, Dimanche

    Heure Température Précipitation Vent Pression Humidité
    00:00 +23°C° 0,3 mm 1 m/s 735 mmHg 81%
    01:00 +23°C° 0,3 mm 1 m/s 735 mmHg 82%
    02:00 +23°C° 0,1 mm 1 m/s 735 mmHg 82%
    03:00 +22°C° 0,1 mm 1 m/s 735 mmHg 82%
    04:00 +22°C° 0,1 mm 1 m/s 734 mmHg 82%
    05:00 +23°C° 0 mm 1 m/s 735 mmHg 80%
    06:00 +23°C° 0 mm 1 m/s 735 mmHg 78%
    07:00 +24°C° 0 mm 1 m/s 735 mmHg 76%
    08:00 +27°C° 0 mm 1 m/s 735 mmHg 66%
    09:00 +30°C° 0 mm 1 m/s 736 mmHg 55%
    10:00 +33°C° 0 mm 1 m/s 736 mmHg 45%
    11:00 +34°C° 0 mm 1 m/s 735 mmHg 43%
    12:00 +35°C° 0 mm 1 m/s 734 mmHg 41%
    13:00 +36°C° 0 mm 1 m/s 734 mmHg 38%
    14:00 +35°C° 0 mm 1 m/s 733 mmHg 40%
    15:00 +35°C° 0 mm 1 m/s 732 mmHg 41%
    16:00 +34°C° 0 mm 1 m/s 732 mmHg 42%
    17:00 +32°C° 0 mm 1 m/s 732 mmHg 52%
    18:00 +29°C° 0 mm 1 m/s 733 mmHg 63%
    19:00 +27°C° 0 mm 1 m/s 733 mmHg 73%
    20:00 +26°C° 0,3 mm 1 m/s 734 mmHg 77%
    21:00 +25°C° 0,3 mm 1 m/s 734 mmHg 81%
    22:00 +24°C° 0,3 mm 1 m/s 735 mmHg 84%
    23:00 +24°C° 0,2 mm 1 m/s 735 mmHg 85%

    Demain, 20 Août, Lundi

    Heure Température Précipitation Vent Pression Humidité
    00:00 +23°C° 0,2 mm 1 m/s 735 mmHg 85%
    01:00 +23°C° 0,2 mm 1 m/s 735 mmHg 85%
    02:00 +23°C° 0,2 mm 1 m/s 735 mmHg 84%
    03:00 +23°C° 0,2 mm 1 m/s 734 mmHg 84%
    04:00 +23°C° 0,2 mm 1 m/s 734 mmHg 83%
    05:00 +24°C° 0,2 mm 1 m/s 735 mmHg 81%
    06:00 +24°C° 0,2 mm 1 m/s 735 mmHg 80%
    07:00 +24°C° 0,2 mm 1 m/s 735 mmHg 78%
    08:00 +27°C° 0 mm 1 m/s 736 mmHg 68%
    09:00 +30°C° 0 mm 1 m/s 736 mmHg 58%
    10:00 +31°C° 0 mm 0 m/s 737 mmHg 47%
    11:00 +34°C° 0,1 mm 1 m/s 736 mmHg 46%
    12:00 +34°C° 0,1 mm 1 m/s 735 mmHg 45%
    13:00 +35°C° 0,1 mm 1 m/s 734 mmHg 44%
    14:00 +34°C° 0,1 mm 1 m/s 733 mmHg 48%
    15:00 +33°C° 0,1 mm 1 m/s 733 mmHg 52%
    16:00 +32°C° 0,1 mm 1 m/s 732 mmHg 55%
    17:00 +30°C° 0,4 mm 1 m/s 733 mmHg 63%
    18:00 +28°C° 0,4 mm 1 m/s 733 mmHg 71%
    19:00 +26°C° 0,4 mm 1 m/s 734 mmHg 79%
    20:00 +26°C° 1,6 mm 1 m/s 735 mmHg 83%
    21:00 +25°C° 1,6 mm 1 m/s 735 mmHg 87%
    22:00 +24°C° 1,6 mm 1 m/s 736 mmHg 91%
    23:00 +24°C° 2,1 mm 1 m/s 736 mmHg 92%

    Après-demain, 21 Août, Mardi

    Heure Température Précipitation Vent Pression Humidité
    00:00 +24°C° 2,1 mm 1 m/s 736 mmHg 93%
    01:00 +23°C° 2,1 mm 1 m/s 736 mmHg 94%
    02:00 +23°C° 1,5 mm 1 m/s 735 mmHg 94%
    03:00 +23°C° 1,5 mm 1 m/s 735 mmHg 94%
    04:00 +23°C° 1,5 mm 1 m/s 735 mmHg 94%
    05:00 +23°C° 0,9 mm 1 m/s 735 mmHg 94%
    06:00 +23°C° 0,9 mm 1 m/s 735 mmHg 93%
    07:00 +23°C° 0,9 mm 1 m/s 736 mmHg 93%
    08:00 +26°C° 0,6 mm 1 m/s 736 mmHg 84%
    09:00 +28°C° 0,6 mm 1 m/s 737 mmHg 75%
    10:00 +30°C° 0,6 mm 1 m/s 737 mmHg 67%
    11:00 +30°C° 0,6 mm 1 m/s 736 mmHg 67%
    12:00 +31°C° 0,6 mm 1 m/s 735 mmHg 67%
    13:00 +31°C° 0,6 mm 1 m/s 734 mmHg 67%
    14:00 +31°C° 0,3 mm 1 m/s 734 mmHg 65%
    15:00 +31°C° 0,3 mm 1 m/s 733 mmHg 63%
    16:00 +31°C° 0,3 mm 1 m/s 732 mmHg 61%
    17:00 +29°C° 0,3 mm 1 m/s 733 mmHg 68%
    18:00 +28°C° 0,3 mm 1 m/s 734 mmHg 76%
    19:00 +24°C° 0,3 mm 0 m/s 734 mmHg 83%
    20:00 +23°C° 0,9 mm 0 m/s 735 mmHg 85%
    21:00 +25°C° 0,9 mm 1 m/s 735 mmHg 86%
    22:00 +24°C° 0,9 mm 1 m/s 736 mmHg 88%
    23:00 +24°C° 1,1 mm 1 m/s 736 mmHg 89%

    22 Août, Mercredi

    Heure Température Précipitation Vent Pression Humidité
    00:00 +24°C° 1,1 mm 1 m/s 735 mmHg 90%
    01:00 +24°C° 1,1 mm 1 m/s 735 mmHg 91%
    02:00 +23°C° 0,9 mm 1 m/s 735 mmHg 91%
    03:00 +23°C° 0,9 mm 1 m/s 735 mmHg 91%
    04:00 +23°C° 0,9 mm 1 m/s 734 mmHg 91%
    05:00 +23°C° 0,5 mm 1 m/s 735 mmHg 89%
    06:00 +23°C° 0,5 mm 1 m/s 735 mmHg 88%
    07:00 +24°C° 0,5 mm 1 m/s 736 mmHg 87%
    08:00 +26°C° 0,1 mm 1 m/s 736 mmHg 78%
    09:00 +28°C° 0,1 mm 1 m/s 737 mmHg 69%
    10:00 +31°C° 0,1 mm 1 m/s 737 mmHg 60%
    11:00 +32°C° 0,1 mm 1 m/s 736 mmHg 56%
    12:00 +33°C° 0,1 mm 1 m/s 735 mmHg 53%
    13:00 +33°C° 0,1 mm 1 m/s 734 mmHg 49%
    14:00 +33°C° 0,1 mm 1 m/s 733 mmHg 50%
    15:00 +33°C° 0,1 mm 1 m/s 733 mmHg 51%
    16:00 +32°C° 0,1 mm 2 m/s 732 mmHg 51%
    17:00 +30°C° 0,1 mm 1 m/s 733 mmHg 61%
    18:00 +28°C° 0,1 mm 1 m/s 733 mmHg 70%
    19:00 +25°C° 0,1 mm 1 m/s 734 mmHg 79%
    20:00 +25°C° 0,2 mm 1 m/s 734 mmHg 80%
    21:00 +24°C° 0,2 mm 1 m/s 735 mmHg 80%
    22:00 +24°C° 0,2 mm 1 m/s 735 mmHg 81%
    23:00 +23°C° 0,3 mm 1 m/s 735 mmHg 80%

    23 Août, Jeudi

    Heure Température Précipitation Vent Pression Humidité
    00:00 +23°C° 0,3 mm 1 m/s 735 mmHg 79%
    01:00 +23°C° 0,3 mm 1 m/s 735 mmHg 79%
    02:00 +23°C° 0,2 mm 1 m/s 734 mmHg 79%
    03:00 +23°C° 0,2 mm 1 m/s 734 mmHg 79%
    04:00 +23°C° 0,2 mm 1 m/s 734 mmHg 79%
    05:00 +23°C° 0,3 mm 1 m/s 734 mmHg 79%
    06:00 +21°C° 0,3 mm 0 m/s 735 mmHg 79%
    07:00 +22°C° 0,3 mm 0 m/s 735 mmHg 79%
    08:00 +26°C° 0,2 mm 1 m/s 736 mmHg 71%
    09:00 +29°C° 0,2 mm 1 m/s 736 mmHg 63%
    10:00 +31°C° 0,2 mm 1 m/s 736 mmHg 55%
    11:00 +32°C° 0 mm 1 m/s 735 mmHg 51%
    12:00 +33°C° 0 mm 1 m/s 734 mmHg 47%
    13:00 +35°C° 0 mm 1 m/s 733 mmHg 42%
    14:00 +34°C° 0,1 mm 1 m/s 733 mmHg 44%
    15:00 +34°C° 0,1 mm 1 m/s 732 mmHg 45%
    16:00 +33°C° 0,1 mm 1 m/s 731 mmHg 46%
    17:00 +31°C° 0 mm 1 m/s 732 mmHg 55%
    18:00 +29°C° 0 mm 1 m/s 732 mmHg 63%
    19:00 +24°C° 0 mm 0 m/s 732 mmHg 71%
    20:00 +26°C° 0,2 mm 1 m/s 733 mmHg 73%
    21:00 +25°C° 0,2 mm 1 m/s 733 mmHg 75%
    22:00 +24°C° 0,2 mm 1 m/s 734 mmHg 77%
    23:00 +24°C° 0,4 mm 1 m/s 734 mmHg 77%

    24 Août, Vendredi

    Heure Température Précipitation Vent Pression Humidité
    00:00 +24°C° 0,4 mm 1 m/s 733 mmHg 77%
    01:00 +24°C° 0,4 mm 1 m/s 733 mmHg 77%
    02:00 +24°C° 0,3 mm 1 m/s 733 mmHg 77%
    03:00 +24°C° 0,3 mm 1 m/s 733 mmHg 78%
    04:00 +23°C° 0,3 mm 1 m/s 733 mmHg 78%
    05:00 +24°C° 0,2 mm 1 m/s 733 mmHg 78%
    06:00 +24°C° 0,2 mm 1 m/s 733 mmHg 77%
    07:00 +25°C° 0,2 mm 1 m/s 734 mmHg 77%
    08:00 +27°C° 0,2 mm 1 m/s 734 mmHg 69%
    09:00 +28°C° 0,2 mm 0 m/s 734 mmHg 61%
    10:00 +30°C° 0,2 mm 0 m/s 735 mmHg 53%
    11:00 +31°C° 0,1 mm 0 m/s 734 mmHg 50%
    12:00 +35°C° 0,1 mm 1 m/s 733 mmHg 46%
    13:00 +36°C° 0,1 mm 1 m/s 732 mmHg 42%
    14:00 +35°C° 0,1 mm 1 m/s 732 mmHg 44%
    15:00 +34°C° 0,1 mm 1 m/s 731 mmHg 46%
    16:00 +33°C° 0,1 mm 1 m/s 731 mmHg 49%
    17:00 +31°C° 0 mm 1 m/s 731 mmHg 56%
    18:00 +29°C° 0 mm 1 m/s 732 mmHg 63%
    19:00 +27°C° 0 mm 1 m/s 732 mmHg 70%
    20:00 +26°C° 0,1 mm 1 m/s 733 mmHg 72%
    21:00 +26°C° 0,1 mm 1 m/s 733 mmHg 74%
    22:00 +25°C° 0,1 mm 1 m/s 734 mmHg 77%
    23:00 +25°C° 0,1 mm 1 m/s 733 mmHg 77%
    Voir plus